Retour au catalogue

FENGYUN 1C DEB

ActifPO
NORAD 36162·DEBRIS·🇨🇳 China

Lancé May 10, 1999 depuis Taiyuan Satellite Launch Center

Loading…

Prochains Passages (prochaines 24 heures)

TLE

VieillissantSource: Space-Track

Époque: Sep 7, 2026, 02:38 UTC

1 36162U 99025DSK 26250.11015094  .00002350  00000-0  11146-2 0  9994
2 36162  97.6216  10.9096 0246267  66.5184 296.1663 14.05562156742880

Suivez FENGYUN 1C DEB en temps réel avec AllMySat

Download on the App Store